N6WT Weather Reports


time (UTC)temp
C
wind
direction
speed
KPH
gust
KPH
rain 1hr
cm
rain 24hr
cm
rain mn
cm
humidity
%
barometer
mb
20260506175044 22 12 4.8 9.7 0.00 0.00 0.00 50 1018.8
20260506174543 22 32 4.8 9.7 0.00 0.00 0.00 49 1018.9
20260506174043 21 15 3.2 12.9 0.00 0.00 0.00 51 1018.9
20260506173541 21 327 4.8 12.9 0.00 0.00 0.00 51 1018.9
20260506173115 21 39 3.2 12.9 0.00 0.00 0.00 50 1018.9
20260506172541 21 321 3.2 12.9 0.00 0.00 0.00 51 1018.9
20260506172040 21 360 4.8 22.5 0.00 0.00 0.00 52 1018.9
20260506171539 21 28 4.8 22.5 0.00 0.00 0.00 52 1018.9
20260506171040 21 18 8.0 19.3 0.00 0.00 0.00 55 1018.9
20260506170540 20 311 4.8 16.1 0.00 0.00 0.00 54 1019.0
20260506170040 20 5 9.7 16.1 0.00 0.00 0.00 55 1018.9
20260506165534 20 109 4.8 14.5 0.00 0.00 0.00 57 1018.9
20260506165032 20 319 8.0 14.5 0.00 0.00 0.00 58 1018.8
20260506164533 19 350 4.8 12.9 0.00 0.00 0.00 59 1018.8
20260506164030 19 327 4.8 16.1 0.00 0.00 0.00 61 1018.8
20260506163534 18 300 8.0 16.1 0.00 0.00 0.00 60 1018.9
20260506163034 18 328 4.8 9.7 0.00 0.00 0.00 61 1018.9
20260506162526 18 5 0.0 12.9 0.00 0.00 0.00 63 1018.9
20260506162033 18 336 4.8 12.9 0.00 0.00 0.00 62 1019.0
20260506161526 18 19 6.4 14.5 0.00 0.00 0.00 64 1019.1
20260506161024 17 5 4.8 14.5 0.00 0.00 0.00 65 1019.1
20260506160524 17 333 4.8 12.9 0.00 0.00 0.00 66 1019.1
20260506160022 17 340 6.4 12.9 0.00 0.00 0.00 68 1019.1
20260506155520 17 48 3.2 14.5 0.00 0.00 0.00 69 1019.1
20260506155019 16 348 4.8 12.9 0.00 0.00 0.00 72 1019.1
20260506154517 16 343 6.4 14.5 0.00 0.00 0.00 73 1019.2
20260506154019 16 336 8.0 14.5 0.00 0.00 0.00 75 1019.3
20260506153514 15 315 4.8 9.7 0.00 0.00 0.00 78 1019.3
20260506153013 15 5 1.6 9.7 0.00 0.00 0.00 81 1019.3
20260506152512 14 322 3.2 6.4 0.00 0.00 0.00 85 1019.4
20260506152010 13 11 3.2 6.4 0.00 0.00 0.00 88 1019.5
20260506151509 12 15 0.0 4.8 0.00 0.00 0.00 91 1019.5
20260506151007 12 32 0.0 3.2 0.00 0.00 0.00 93 1019.4
20260506150506 11 85 0.0 3.2 0.00 0.00 0.00 94 1019.5
20260506150005 10 127 0.0 3.2 0.00 0.00 0.00 94 1019.5
20260506145502 10 127 0.0 3.2 0.00 0.00 0.00 94 1019.6
20260506145002 10 127 0.0 3.2 0.00 0.00 0.00 95 1019.5
20260506144600 10 127 0.0 3.2 0.00 0.00 0.00 95 1019.5
20260506144059 9 99 0.0 1.6 0.00 0.00 0.00 96 1019.6
20260506143558 8 99 0.0 3.2 0.00 0.00 0.00 96 1019.6
20260506143057 8 99 0.0 3.2 0.00 0.00 0.00 96 1019.5
20260506142556 8 99 0.0 3.2 0.00 0.00 0.00 96 1019.5
20260506142059 7 99 0.0 3.2 0.00 0.00 0.00 96 1019.5
20260506141555 7 116 0.0 3.2 0.00 0.00 0.00 95 1019.3
20260506141054 7 116 0.0 3.2 0.00 0.00 0.00 96 1019.3
20260506140554 6 116 0.0 3.2 0.00 0.00 0.00 96 1019.3
20260506140052 6 116 0.0 3.2 0.00 0.00 0.00 96 1019.2
20260506135550 6 116 0.0 3.2 0.00 0.00 0.00 95 1019.3
20260506135049 6 116 0.0 3.2 0.00 0.00 0.00 95 1019.2
20260506134549 6 74 0.0 3.2 0.00 0.00 0.00 95 1019.1
20260506134048 5 42 0.0 1.6 0.00 0.00 0.00 95 1019.2
20260506133548 5 42 0.0 1.6 0.00 0.00 0.00 95 1019.2
20260506133047 5 117 0.0 3.2 0.00 0.00 0.00 95 1019.2
20260506132545 5 117 0.0 3.2 0.00 0.00 0.00 95 1019.2
20260506132045 5 350 0.0 3.2 0.00 0.00 0.00 95 1019.0
20260506131551 5 316 0.0 3.2 0.00 0.00 0.00 95 1019.0
20260506131043 5 316 0.0 4.8 0.00 0.00 0.00 95 1019.0
20260506130542 5 317 0.0 4.8 0.00 0.00 0.00 94 1018.9
20260506130058 5 300 0.0 0.0 0.00 0.00 0.00 94 1019.0
20260506125539 5 300 0.0 0.0 0.00 0.00 0.00 95 1018.9
20260506125039 5 300 0.0 0.0 0.00 0.00 0.00 94 1018.9
20260506124538 5 300 0.0 0.0 0.00 0.00 0.00 94 1018.8
20260506124038 5 300 0.0 0.0 0.00 0.00 0.00 94 1018.9
20260506123538 5 300 0.0 0.0 0.00 0.00 0.00 94 1019.0
20260506123040 5 300 0.0 0.0 0.00 0.00 0.00 94 1018.9
20260506122540 6 300 0.0 0.0 0.00 0.00 0.00 94 1019.0
20260506122037 6 300 0.0 0.0 0.00 0.00 0.00 94 1019.0
20260506121536 6 300 0.0 0.0 0.00 0.00 0.00 94 1019.0
20260506121036 6 300 0.0 0.0 0.00 0.00 0.00 94 1019.0
20260506120536 6 300 0.0 0.0 0.00 0.00 0.00 94 1018.9
20260506120036 6 300 0.0 0.0 0.00 0.00 0.00 94 1019.0
20260506115535 6 300 0.0 0.0 0.00 0.00 0.00 94 1019.0
20260506115034 6 300 0.0 0.0 0.00 0.00 0.00 94 1018.9
20260506114538 6 300 0.0 0.0 0.00 0.00 0.00 94 1018.9
20260506114034 6 300 0.0 0.0 0.00 0.00 0.00 94 1018.9
20260506113533 6 300 0.0 0.0 0.00 0.00 0.00 94 1019.0
20260506113037 6 300 0.0 0.0 0.00 0.00 0.00 94 1018.9
20260506112531 6 300 0.0 0.0 0.00 0.00 0.00 94 1018.9
20260506112035 6 300 0.0 0.0 0.00 0.00 0.00 94 1018.9
20260506111531 6 300 0.0 0.0 0.00 0.00 0.00 94 1018.8
20260506111030 6 300 0.0 0.0 0.00 0.00 0.00 94 1018.9
20260506110531 6 300 0.0 0.0 0.00 0.00 0.00 94 1018.8
20260506110030 6 300 0.0 0.0 0.00 0.00 0.00 94 1018.8
20260506105528 6 300 0.0 0.0 0.00 0.00 0.00 94 1018.9
20260506105031 7 300 0.0 0.0 0.00 0.00 0.00 94 1018.8
20260506104529 7 300 0.0 0.0 0.00 0.00 0.00 94 1018.8
20260506104026 7 300 0.0 0.0 0.00 0.00 0.00 94 1018.7
20260506103526 7 300 0.0 0.0 0.00 0.00 0.00 94 1018.8
20260506103033 7 300 0.0 0.0 0.00 0.00 0.00 94 1018.8
20260506102525 7 300 0.0 0.0 0.00 0.00 0.00 93 1018.8
20260506102024 7 300 0.0 0.0 0.00 0.00 0.00 94 1018.8
20260506101539 7 300 0.0 0.0 0.00 0.00 0.00 93 1018.8
20260506101024 7 268 0.0 0.0 0.00 0.00 0.00 94 1018.8
20260506100524 7 268 0.0 0.0 0.00 0.00 0.00 94 1018.8
20260506100024 7 268 0.0 0.0 0.00 0.00 0.00 94 1018.8
20260506095525 7 268 0.0 0.0 0.00 0.00 0.00 94 1018.8
20260506095026 7 268 0.0 0.0 0.00 0.00 0.00 94 1018.8
20260506094525 7 268 0.0 0.0 0.00 0.00 0.00 94 1018.8
20260506094026 7 268 0.0 0.0 0.00 0.00 0.00 94 1018.8
20260506093522 7 268 0.0 0.0 0.00 0.00 0.00 93 1018.9
20260506093027 7 268 0.0 0.0 0.00 0.00 0.00 92 1018.9
20260506092521 7 233 0.0 0.0 0.00 0.00 0.00 93 1018.9
20260506092021 7 233 0.0 0.0 0.00 0.00 0.00 94 1018.8
20260506091521 7 233 0.0 0.0 0.00 0.00 0.00 94 1018.9
20260506091024 7 233 0.0 0.0 0.00 0.00 0.00 94 1018.9
20260506090520 7 233 0.0 0.0 0.00 0.00 0.00 93 1018.9
20260506090020 7 233 0.0 0.0 0.00 0.00 0.00 93 1018.8
20260506085521 7 233 0.0 0.0 0.00 0.00 0.00 92 1019.0
20260506085019 7 233 0.0 0.0 0.00 0.00 0.00 92 1019.0
20260506084519 7 233 0.0 0.0 0.00 0.00 0.00 92 1018.9
20260506084018 7 233 0.0 0.0 0.00 0.00 0.00 92 1019.0
20260506083517 7 233 0.0 0.0 0.00 0.00 0.00 93 1018.9
20260506083017 7 233 0.0 0.0 0.00 0.00 0.00 93 1019.0
20260506082518 7 233 0.0 0.0 0.00 0.00 0.00 93 1019.0
20260506082017 7 233 0.0 0.0 0.00 0.00 0.00 93 1019.1
20260506081515 7 233 0.0 0.0 0.00 0.00 0.00 92 1019.1
20260506081015 7 233 0.0 0.0 0.00 0.00 0.00 92 1019.0
20260506080514 8 233 0.0 0.0 0.00 0.00 0.00 91 1019.1
20260506073508 8 233 0.0 0.0 0.00 0.00 0.00 93 1018.8
20260506073016 8 233 0.0 0.0 0.00 0.00 0.00 93 1018.9
20260506072509 8 233 0.0 0.0 0.00 0.00 0.00 92 1018.8
20260506072007 8 233 0.0 0.0 0.00 0.00 0.00 92 1018.8
20260506071508 8 233 0.0 0.0 0.00 0.00 0.00 92 1018.7
20260506071008 8 233 0.0 0.0 0.00 0.00 0.00 91 1018.7
20260506070506 9 233 0.0 0.0 0.00 0.00 0.00 91 1018.7
20260506062100 10 233 0.0 0.0 0.00 0.00 0.00 90 1018.3
20260506061559 10 233 0.0 0.0 0.00 0.00 0.00 91 1018.2
20260506061058 10 233 0.0 0.0 0.00 0.00 0.00 90 1018.2
20260506060601 10 233 0.0 0.0 0.00 0.00 0.00 90 1018.2
20260506051055 10 211 0.0 0.0 0.00 0.00 0.00 88 1017.9
20260506050555 11 176 0.0 0.0 0.00 0.00 0.00 87 1017.9
20260506045052 11 159 0.0 0.0 0.00 0.00 0.00 87 1017.6
20260506044657 11 149 0.0 0.0 0.00 0.00 0.00 87 1017.5
20260506044055 11 146 0.0 4.8 0.00 0.00 0.00 86 1017.6
20260506043553 11 146 0.0 4.8 0.00 0.00 0.00 86 1017.5
20260506043052 11 86 1.6 4.8 0.00 0.00 0.00 86 1017.5
20260506042552 12 219 0.0 8.0 0.00 0.00 0.00 86 1017.4
20260506042051 12 213 3.2 8.0 0.00 0.00 0.00 86 1017.3
20260506041600 12 212 0.0 4.8 0.00 0.00 0.00 86 1017.3
20260506041049 12 322 1.6 8.0 0.00 0.00 0.00 86 1017.3
20260506040552 12 98 1.6 11.3 0.00 0.00 0.00 86 1017.2
20260506040048 12 277 6.4 14.5 0.00 0.00 0.00 85 1017.1
20260506035547 12 236 8.0 14.5 0.00 0.00 0.00 85 1017.0
20260506035047 12 304 3.2 12.9 0.00 0.00 0.00 84 1017.0
20260506034620 12 292 4.8 12.9 0.00 0.00 0.00 84 1016.9
20260506034046 12 237 4.8 11.3 0.00 0.00 0.00 84 1016.9
20260506033547 12 205 1.6 8.0 0.00 0.00 0.00 83 1016.9
20260506033045 12 173 3.2 12.9 0.00 0.00 0.00 83 1016.7
20260506032543 12 241 3.2 12.9 0.00 0.00 0.00 83 1016.6
20260506032043 12 277 0.0 8.0 0.00 0.00 0.00 82 1016.5
20260506031543 12 62 0.0 9.7 0.00 0.00 0.00 82 1016.4
20260506031042 12 343 1.6 9.7 0.00 0.00 0.00 81 1016.3
20260506030544 12 302 1.6 8.0 0.00 0.00 0.00 81 1016.2
20260506030040 12 39 0.0 4.8 0.00 0.00 0.00 80 1016.1
20260506025538 12 84 1.6 8.0 0.00 0.00 0.00 80 1016.1
20260506025041 13 341 1.6 8.0 0.00 0.00 0.00 79 1016.1
20260506024537 13 229 1.6 6.4 0.00 0.00 0.00 79 1016.0
20260506024036 13 172 1.6 6.4 0.00 0.00 0.00 78 1015.8
20260506023537 13 117 3.2 14.5 0.00 0.00 0.00 77 1015.8
20260506023049 13 32 1.6 14.5 0.00 0.00 0.00 77 1015.8
20260506022533 13 284 1.6 14.5 0.00 0.00 0.00 76 1015.8
20260506022033 13 277 3.2 6.4 0.00 0.00 0.00 75 1015.8
20260506021534 13 223 0.0 6.4 0.00 0.00 0.00 75 1015.8
20260506021034 13 312 3.2 6.4 0.00 0.00 0.00 74 1015.7
20260506020535 13 53 0.0 12.9 0.00 0.00 0.00 74 1015.6
20260506020031 13 142 0.0 8.0 0.00 0.00 0.00 73 1015.6
20260506015531 13 318 3.2 19.3 0.00 0.00 0.00 73 1015.4
20260506015034 14 277 8.0 22.5 0.00 0.00 0.00 73 1015.4
20260506014532 14 314 3.2 22.5 0.00 0.00 0.00 72 1015.4
20260506014030 14 240 3.2 16.1 0.00 0.00 0.00 71 1015.3
20260506013531 15 279 3.2 25.7 0.00 0.00 0.00 71 1015.2
20260506013029 15 281 3.2 14.5 0.00 0.00 0.00 70 1015.2
20260506012529 15 290 4.8 19.3 0.00 0.00 0.00 70 1015.2
20260506012028 15 284 4.8 25.7 0.00 0.00 0.00 69 1015.1
20260506011528 15 306 6.4 24.1 0.00 0.00 0.00 68 1015.1
20260506011029 15 28 3.2 24.1 0.00 0.00 0.00 68 1015.0
20260506010529 16 286 9.7 24.1 0.00 0.00 0.00 67 1015.1
20260506010028 16 325 3.2 19.3 0.00 0.00 0.00 67 1015.2
20260506005527 16 329 4.8 22.5 0.00 0.00 0.00 66 1015.2
20260506005028 16 325 9.7 22.5 0.00 0.00 0.00 67 1015.2
20260506004535 16 223 6.4 20.9 0.00 0.00 0.00 67 1015.1
20260506004027 16 334 8.0 20.9 0.00 0.00 0.00 66 1015.1
20260506003527 16 308 9.7 25.7 0.00 0.00 0.00 65 1015.1
20260506003038 17 318 9.7 25.7 0.00 0.00 0.00 63 1015.1
20260506002526 17 348 9.7 25.7 0.00 0.00 0.00 63 1015.0
20260506002026 17 339 11.3 25.7 0.00 0.00 0.00 63 1015.0
20260506001526 17 340 12.9 25.7 0.00 0.00 0.00 62 1014.9
20260506001026 17 28 11.3 25.7 0.00 0.00 0.00 61 1015.0
20260506000526 17 340 14.5 25.7 0.00 0.00 0.00 62 1014.8
20260506000026 17 324 16.1 24.1 0.00 0.00 0.00 61 1014.9
20260505235524 17 290 12.9 27.4 0.00 0.00 0.00 61 1014.9
20260505235024 17 329 12.9 29.0 0.00 0.00 0.00 62 1014.8
20260505234534 17 348 12.9 29.0 0.00 0.00 0.00 61 1014.8
20260505234029 17 346 11.3 33.8 0.00 0.00 0.00 60 1015.0
20260505233527 17 345 12.9 33.8 0.00 0.00 0.00 60 1015.0
20260505233023 17 304 14.5 25.7 0.00 0.00 0.00 59 1014.9
20260505232522 17 237 11.3 27.4 0.00 0.00 0.00 59 1015.0
20260505232023 17 347 12.9 25.7 0.00 0.00 0.00 59 1015.0
20260505231523 17 24 12.9 29.0 0.00 0.00 0.00 58 1015.0
20260505231023 17 23 9.7 24.1 0.00 0.00 0.00 57 1015.1
20260505230521 17 331 8.0 24.1 0.00 0.00 0.00 57 1015.0
20260505230021 17 322 9.7 25.7 0.00 0.00 0.00 57 1015.1
20260505225524 17 327 9.7 25.7 0.00 0.00 0.00 57 1015.1
20260505225020 17 322 8.0 24.1 0.00 0.00 0.00 57 1015.2
20260505224520 17 355 3.2 25.7 0.00 0.00 0.00 57 1015.3
20260505224019 17 347 11.3 29.0 0.00 0.00 0.00 56 1015.3
20260505223518 17 335 9.7 29.0 0.00 0.00 0.00 57 1015.3
20260505223018 17 312 9.7 25.7 0.00 0.00 0.00 57 1015.4
20260505222522 17 337 11.3 25.7 0.00 0.00 0.00 57 1015.4
20260505222019 17 330 12.9 29.0 0.00 0.00 0.00 56 1015.4
20260505221519 17 324 9.7 29.0 0.00 0.00 0.00 55 1015.4
20260505221018 17 332 8.0 29.0 0.00 0.00 0.00 55 1015.4
20260505220518 17 293 8.0 29.0 0.00 0.00 0.00 55 1015.4
20260505220027 17 338 11.3 29.0 0.00 0.00 0.00 53 1015.5
20260505215516 17 34 9.7 30.6 0.00 0.00 0.00 55 1015.6
20260505215016 17 355 14.5 30.6 0.00 0.00 0.00 55 1015.7
20260505214522 17 340 9.7 32.2 0.00 0.00 0.00 55 1015.8
20260505214015 17 30 17.7 32.2 0.00 0.00 0.00 56 1016.0
20260505213515 17 5 12.9 29.0 0.00 0.00 0.00 57 1016.0
20260505213015 16 25 6.4 30.6 0.00 0.00 0.00 58 1016.0
20260505212517 16 321 14.5 32.2 0.00 0.00 0.00 58 1016.0
20260505212018 17 5 14.5 29.0 0.00 0.00 0.00 57 1016.0
20260505211515 17 321 17.7 27.4 0.00 0.00 0.00 55 1016.1
20260505211016 18 319 9.7 25.7 0.00 0.00 0.00 56 1015.8
20260505210514 18 325 12.9 22.5 0.00 0.00 0.00 55 1015.8
20260505210013 18 41 8.0 19.3 0.00 0.00 0.00 57 1015.7
20260505205511 18 15 8.0 17.7 0.00 0.00 0.00 57 1015.8
20260505205011 17 282 4.8 22.5 0.00 0.00 0.00 58 1015.7
20260505204511 17 10 12.9 22.5 0.00 0.00 0.00 58 1015.8
20260505204012 17 307 3.2 25.7 0.00 0.00 0.00 61 1015.8
20260505203510 16 340 4.8 25.7 0.00 0.00 0.00 62 1015.9
20260505203009 16 89 8.0 16.1 0.00 0.00 0.00 64 1015.9
20260505202509 16 254 4.8 16.1 0.00 0.00 0.00 64 1015.8
20260505202012 16 333 3.2 19.3 0.00 0.00 0.00 65 1016.0
20260505201512 16 206 9.7 19.3 0.00 0.00 0.00 64 1015.9
20260505201109 16 143 6.4 29.0 0.00 0.00 0.00 65 1015.9
20260505200509 16 123 9.7 29.0 0.00 0.00 0.00 64 1015.9
20260505200008 16 205 4.8 16.1 0.00 0.00 0.00 64 1015.9
20260505195507 16 287 4.8 19.3 0.00 0.00 0.00 63 1016.0
20260505195016 17 101 1.6 27.4 0.00 0.00 0.00 63 1015.9
20260505194522 17 355 6.4 22.5 0.00 0.00 0.00 62 1016.0
20260505194007 17 342 14.5 22.5 0.00 0.00 0.00 60 1016.1
20260505193506 17 319 3.2 16.1 0.00 0.00 0.00 61 1015.9
20260505193021 17 97 0.0 16.1 0.00 0.00 0.00 62 1015.9
20260505192507 17 193 1.6 11.3 0.00 0.00 0.00 62 1015.9
20260505192007 16 67 0.0 19.3 0.00 0.00 0.00 62 1015.9
20260505191506 17 290 9.7 19.3 0.00 0.00 0.00 60 1016.1
20260505191009 17 227 1.6 27.4 0.00 0.00 0.00 62 1016.1
20260505190507 17 298 4.8 27.4 0.00 0.00 0.00 61 1016.0
20260505190007 17 355 6.4 16.1 0.00 0.00 0.00 61 1015.9
20260505185507 17 127 6.4 16.1 0.00 0.00 0.00 63 1015.9
20260505185004 17 306 3.2 16.1 0.00 0.00 0.00 60 1016.0
20260505184506 17 288 8.0 16.1 0.00 0.00 0.00 58 1016.1
20260505184004 17 5 1.6 12.9 0.00 0.00 0.00 59 1016.0
20260505183502 17 328 3.2 16.1 0.00 0.00 0.00 58 1016.1
20260505183002 17 300 4.8 16.1 0.00 0.00 0.00 60 1016.1
20260505182502 17 91 3.2 8.0 0.00 0.00 0.00 60 1016.1
20260505182000 17 5 3.2 8.0 0.00 0.00 0.00 62 1016.1
20260505181601 16 71 3.2 12.9 0.00 0.00 0.00 62 1016.1
20260505181103 16 42 4.8 12.9 0.00 0.00 0.00 63 1016.1
20260505180558 16 207 0.0 6.4 0.00 0.00 0.00 64 1016.1
20260505180103 15 227 1.6 14.5 0.00 0.00 0.00 65 1016.1
20260505175558 15 15 1.6 14.5 0.00 0.00 0.00 65 1016.1